KD4PMP Weather Reports


time (UTC)temp
C
wind
direction
speed
KPH
gust
KPH
rain 1hr
cm
rain 24hr
cm
rain mn
cm
humidity
%
barometer
mb
20260505095953 14 131 0.0 1.6 0.00 0.00 0.00 77 1009.9
20260505095021 14 131 1.6 1.6 0.00 0.00 0.00 77 1009.9
20260505094021 14 131 1.6 1.6 0.00 0.00 0.00 77 1009.8
20260505093021 14 131 0.0 0.0 0.00 0.00 0.00 77 1009.9
20260505092021 15 131 0.0 1.6 0.00 0.00 0.00 76 1010.0
20260505091021 15 131 0.0 4.8 0.00 0.00 0.00 75 1010.0
20260505090020 15 132 0.0 3.2 0.00 0.00 0.00 74 1009.8
20260505085020 15 132 0.0 1.6 0.00 0.00 0.00 73 1009.9
20260505084020 15 132 1.6 3.2 0.00 0.00 0.00 73 1009.8
20260505083020 15 123 1.6 4.8 0.00 0.00 0.00 73 1009.8
20260505082019 16 123 0.0 3.2 0.00 0.00 0.00 72 1009.6
20260505081018 16 126 1.6 4.8 0.00 0.00 0.00 71 1009.5
20260505080018 16 125 3.2 4.8 0.00 0.00 0.00 71 1009.4
20260505075018 16 121 1.6 6.4 0.00 0.00 0.00 71 1009.5
20260505074018 16 115 3.2 4.8 0.00 0.00 0.00 71 1009.6
20260505073018 16 113 1.6 3.2 0.00 0.00 0.00 70 1009.6
20260505072017 16 113 0.0 0.0 0.00 0.00 0.00 70 1009.6
20260505071017 16 114 0.0 3.2 0.00 0.00 0.00 69 1009.8
20260505070017 16 114 0.0 1.6 0.00 0.00 0.00 68 1009.8
20260505065017 16 114 1.6 3.2 0.00 0.00 0.00 68 1010.0
20260505064016 16 114 1.6 3.2 0.00 0.00 0.00 68 1010.1
20260505063015 17 114 1.6 3.2 0.00 0.00 0.00 67 1010.3
20260505062015 17 114 1.6 4.8 0.00 0.00 0.00 67 1010.4
20260505061015 17 113 1.6 3.2 0.00 0.00 0.00 67 1010.5
20260505060015 17 113 0.0 1.6 0.00 0.00 0.00 66 1010.6
20260505055014 17 113 0.0 3.2 0.00 0.00 0.00 66 1010.6
20260505054014 17 114 1.6 3.2 0.00 0.00 0.00 65 1010.7
20260505053014 18 115 1.6 6.4 0.00 0.00 0.00 63 1010.6
20260505052014 18 161 1.6 6.4 0.00 0.00 0.00 62 1010.6
20260505051013 18 163 1.6 3.2 0.00 0.00 0.00 61 1010.7
20260505041011 20 182 3.2 6.4 0.00 0.00 0.00 58 1010.3
20260505040011 20 196 0.0 3.2 0.00 0.00 0.00 58 1010.4
20260505035011 20 196 3.2 4.8 0.00 0.00 0.00 57 1010.2
20260505034011 20 196 0.0 4.8 0.00 0.00 0.00 57 1010.3
20260505033010 20 193 0.0 3.2 0.00 0.00 0.00 57 1010.2
20260505032010 20 193 0.0 6.4 0.00 0.00 0.00 57 1010.1
20260505031010 20 202 0.0 4.8 0.00 0.00 0.00 56 1010.1
20260505030009 20 202 1.6 4.8 0.00 0.00 0.00 56 1010.1
20260505025009 20 201 1.6 3.2 0.00 0.00 0.00 55 1010.1
20260505024009 21 202 1.6 3.2 0.00 0.00 0.00 55 1010.0
20260505023009 21 202 1.6 3.2 0.00 0.00 0.00 54 1010.0
20260505022009 21 202 3.2 4.8 0.00 0.00 0.00 54 1010.0
20260505021008 21 202 1.6 3.2 0.00 0.00 0.00 53 1009.8
20260505020008 21 202 0.0 3.2 0.00 0.00 0.00 53 1009.7
20260505015008 22 202 1.6 4.8 0.00 0.00 0.00 53 1009.6
20260505014007 22 202 1.6 3.2 0.00 0.00 0.00 52 1009.8
20260505013007 22 202 3.2 3.2 0.00 0.00 0.00 51 1009.6
20260505012007 22 202 1.6 4.8 0.00 0.00 0.00 51 1009.6
20260505011006 23 202 3.2 6.4 0.00 0.00 0.00 50 1009.7
20260505010006 23 201 1.6 6.4 0.00 0.00 0.00 49 1009.6
20260505005006 23 224 3.2 4.8 0.00 0.00 0.00 48 1009.4
20260505004006 24 224 1.6 6.4 0.00 0.00 0.00 47 1009.4
20260505003005 24 223 3.2 4.8 0.00 0.00 0.00 46 1009.5
20260505002005 25 215 3.2 11.3 0.00 0.00 0.00 45 1009.4
20260505001004 25 196 3.2 6.4 0.00 0.00 0.00 44 1009.5
20260505000004 25 222 1.6 11.3 0.00 0.00 0.00 44 1009.4
20260504235004 26 209 4.8 12.9 0.00 0.00 0.00 42 1009.5
20260504234004 26 148 1.6 12.9 0.00 0.00 0.00 41 1009.6
20260504233003 26 234 3.2 12.9 0.00 0.00 0.00 41 1009.6
20260504232003 26 211 0.0 11.3 0.00 0.00 0.00 41 1009.6
20260504231003 27 251 3.2 9.7 0.00 0.00 0.00 39 1009.7
20260504230003 27 204 1.6 14.5 0.00 0.00 0.00 39 1009.5
20260504225003 27 189 3.2 14.5 0.00 0.00 0.00 40 1009.7
20260504224002 27 166 6.4 22.5 0.00 0.00 0.00 39 1009.6
20260504223001 27 212 6.4 16.1 0.00 0.00 0.00 40 1009.7
20260504222001 27 248 6.4 17.7 0.00 0.00 0.00 41 1009.7
20260504221001 27 152 3.2 14.5 0.00 0.00 0.00 41 1009.7
20260504220001 27 156 8.0 16.1 0.00 0.00 0.00 39 1009.4
20260504215001 27 207 1.6 16.1 0.00 0.00 0.00 39 1009.5
20260504214000 27 247 3.2 14.5 0.00 0.00 0.00 39 1009.5
20260504213000 27 212 4.8 12.9 0.00 0.00 0.00 42 1009.4
20260504212000 27 178 3.2 16.1 0.00 0.00 0.00 42 1009.4
20260504210959 27 202 6.4 12.9 0.00 0.00 0.00 41 1009.4
20260504205959 27 194 4.8 16.1 0.00 0.00 0.00 40 1009.5
20260504204959 27 250 1.6 14.5 0.00 0.00 0.00 42 1009.6
20260504203958 27 155 3.2 17.7 0.00 0.00 0.00 41 1009.7
20260504202958 27 178 11.3 19.3 0.00 0.00 0.00 39 1010.0
20260504201958 27 144 6.4 19.3 0.00 0.00 0.00 40 1009.9
20260504200958 27 180 6.4 20.9 0.00 0.00 0.00 39 1010.1
20260504195957 27 240 8.0 20.9 0.00 0.00 0.00 44 1010.1
20260504194957 28 280 6.4 19.3 0.00 0.00 0.00 40 1010.4
20260504193957 27 241 6.4 17.7 0.00 0.00 0.00 43 1010.5
20260504192956 27 250 3.2 27.4 0.00 0.00 0.00 42 1010.5
20260504191956 27 147 9.7 25.7 0.00 0.00 0.00 42 1010.5
20260504190956 27 175 14.5 16.1 0.00 0.00 0.00 44 1010.9
20260504190026 27 221 6.4 12.9 0.00 0.00 0.00 46 1011.1
20260504185025 27 239 6.4 16.1 0.00 0.00 0.00 44 1011.2
20260504184026 27 191 6.4 16.1 0.00 0.00 0.00 45 1011.3
20260504182954 26 227 6.4 17.7 0.00 0.00 0.00 46 1011.3
20260504182024 27 205 3.2 17.7 0.00 0.00 0.00 47 1011.4
20260504181024 26 265 11.3 17.7 0.00 0.00 0.00 50 1011.5
20260504175953 26 236 6.4 14.5 0.00 0.00 0.00 47 1011.5
20260504175024 26 276 4.8 14.5 0.00 0.00 0.00 48 1011.6
20260504174023 26 338 6.4 17.7 0.00 0.00 0.00 49 1011.8
20260504172953 26 204 4.8 16.1 0.00 0.00 0.00 47 1011.8
20260504172023 26 205 3.2 11.3 0.00 0.00 0.00 49 1012.0
20260504170954 25 239 4.8 11.3 0.00 0.00 0.00 51 1012.2
20260504151019 22 254 0.0 14.5 0.00 0.00 0.00 56 1013.4
20260504141017 20 151 1.6 8.0 0.00 0.00 0.00 63 1013.6